Weather Roundup
Issued by NWS Chicago, IL

Home | Current Version | Previous Version | Text Only | Print | Product List | Glossary Off
Versions: 1 2 3 4 5 6 7 8 9 10 11 12 13 14 15 16 17 18 19 20 21 22 23 24 25 26 27 28 29 30 31 32 33 34 35 36 37 38 39 40 41 42 43 44 45 46 47 48 49 50

000
NZUS59 KLOT 260708
HRRLOT

CHICAGO AREA WEATHER ROUNDUP
NATIONAL WEATHER SERVICE CHICAGO/ROMEOVILLE IL
200 AM CDT FRI AUG 26 2016

NOTE: "FAIR" INDICATES FEW OR NO CLOUDS BELOW 12,000 FEET WITH NO
SIGNIFICANT WEATHER AND/OR OBSTRUCTIONS TO VISIBILITY.

* THESE STATIONS ARE NOT UNDER NWS QUALITY CONTROL. THEY ALSO MAY NOT
  REPORT WEATHER SUCH AS PRECIPITATION OR FOG.

ILZ005-006-012>014-019>023-260800-
NORTHEAST ILLINOIS

CITY           SKY/WX    TMP DP  RH WIND       PRES   REMARKS
OHARE          MOCLDY    68  63  84 NW7       30.10S
MIDWAY         CLOUDY    70  63  78 NW3       30.10R
AURORA           N/A     63  62  97 CALM      30.12R
LANSING*         N/A     67  67 100 CALM      30.11R
JOLIET*          N/A     69  67  93 CALM      30.11R
WAUKEGAN         N/A     65  62  90 NW3       30.10R
DUPAGE AIRPORT   N/A     65  61  87 CALM      30.10S
WHEELING         N/A     67  62  84 NW3       30.11R
KANKAKEE*        N/A     68  67  95 CALM      30.12R
MORRIS*          N/A     66  64  94 CALM      30.10R
LEWIS AIRPORT*   N/A     66  66 100 N5        30.11R
NORTHERLY ISL    N/A     70  62  76 W2          N/A
$$

WIZ051-052-058>065-066-070>072-260800-
SOUTHEAST WISCONSIN

CITY           SKY/WX    TMP DP  RH WIND       PRES   REMARKS
MILWAUKEE        N/A     71  61  70 W7        30.09S
KENOSHA*         N/A     62  60  93 W5        30.11R
RACINE*          N/A     66  61  84 W3        30.11S
BURLINGTON       N/A     60  59  97 SW3       30.11S
WAUKESHA         N/A     63  59  88 W6        30.11S
$$

INZ001>003-010>013-019-020-260800-
NORTHWEST INDIANA

CITY           SKY/WX    TMP DP  RH WIND       PRES   REMARKS
GARY*          FOG       67  67 100 CALM      30.11R VSB 3/4
MICHIGAN CITY* NOT AVBL
RENSSELAER*    NOT AVBL
VALPARAISO       N/A     68  65  90 CALM      30.10F
$$

LMZ740>746-260800-
SOUTHERN LAKE MICHIGAN

STATION/POSITION TIME  SKY/WX   TEMP WIND        PRES    VSBY
                                AIR  DIR/SP/G
                 (UTC)          (F)  (DEG/KT/KT) (MB)    (MI)
HARRISON CRIB    0600            74  290/  7/  7   N/A
BURNHAM HARBOR   0700            71  290/  2/  6   N/A
CALUMET HARBOR   0600            71  250/  2/  3 1018.7R
BURNS HARBOR     0602            72  240/  3/  4 1019.6R
MICHIGAN CITY    0600            72  160/  2/  2   N/A
$$

ABBREVIATIONS USED IN REMARKS
   TC - TEMPERATURE IN CELSIUS
  WCI - WIND CHILL INDEX
   HX - HEAT INDEX
  VSB - VISIBILITY
$$




USA.gov is the U.S. government's official web portal to all federal, state and local government web resources and services.